Etusivu
METAR-TAF:

METAR-TAF

Lentoasemat :

Maple Lake Municipal Airport

Maple Lake, Minnesota, Yhdysvallat

Leveyspiiri: 45-14-10N, Pituuspiiri: 093-59-08W, korkeus merenpinnasta: 313 m

Tämänhetkinen sää

Tämä raportti tehtiin 24 minuuttia sitten, kello 19.36 UTC
tyyntä
Lämpötila 27°C
Kosteus 74%
Ilmanpaine 1011 hPa
Näkyvyys: 16.1 km

METAR: KMGG 091936Z AUTO 00000KT 10SM 27/22 A2985 RMK AO2 T02660223

Aika: 15:00 (20:00 UTC)


TAF: puuttuu

Säähavainnot ja -ennusteet yli 4000 lentoasemalta (METAR- ja TAF-raportit).

Käytössä olevat sääasemat on merkitty karttaan keltaisilla ja punaisilla pisteillä.

Aseta hiiri pisteen päälle nähdäksesi sääaseman nimen.

Klikkaa sitten nähdäksesi säähavainnot ja -ennusteet.

Kartan vaihtaminen: klikkaa mustalla rastilla varustettuja vihreitä pisteitä, niin voit zoomata sisään; viivalla varustettua vihreää pistettä, niin voit zoomata ulos tai vihreitä nuolia, niin pääset viereisille kartoille.


METAR-TAF: